Flag for Chile Weather past 2 weeks in Easter Island, Chile

Now
54 °F

Passing clouds.


Feels Like: 54 °F
Forecast: 56 / 70 °F
Wind: No wind

Location: Isla De Pascua

Current Time: May 29, 2015 at 1:40:59 AM

Latest Report: May 29, 2015 at 1:00 AM


Visibility: N/A

Pressure: 30.24 "Hg

Humidity: 82%

Dew point: 48 °F

Location of Easter IslandLocation

Historic Weather in Easter Island — Graph

°F

Easter Island temperature yesterday

Maximum temperature yesterday: 72 °F (at 4:00 PM)
Minimum temperature yesterday: 52 °F (at 7:00 AM)
Average temperature yesterday: 63 °F

Past Weeks' High & Low Weather Summary

 TemperatureHumidityPressure
High75 °F (May 23, 2:00 PM)94% (May 14, 6:00 AM)30.27 "Hg (May 14, 6:00 AM)
Low52 °F (May 28, 7:00 AM)43% (May 19, 12:00 PM)29.83 "Hg (May 26, 6:00 AM)
Average66 °F72%30.13 "Hg
* Reported Midnight between May 13 and May 14 — Midnight between May 28 and May 29, Easter Island, Weather by CustomWeather, © 2015

Note: Actual official high and low records may vary slightly from our data, if they occured in-between our weather recording intervals... More about our weather records

Advertising

Easter Island weather history for previous 24 hours

 ConditionsComfort  
Time TempWeatherWind HumidityBarometerVisibility
12:00 AM
Fri, May 29
57 °FPassing clouds.2 mph77%30.24 "HgN/A
11:00 PM
Thu, May 28
57 °FPassing clouds.3 mph77%30.21 "HgN/A
10:00 PM55 °FPassing clouds.2 mph82%30.21 "HgN/A
9:00 PM57 °FPassing clouds.3 mph77%30.21 "HgN/A
8:00 PM61 °FPassing clouds.2 mph68%30.18 "HgN/A
7:00 PM68 °FPassing clouds.5 mph56%30.18 "HgN/A
6:00 PM70 °FPassing clouds.7 mph53%30.18 "HgN/A
5:00 PM70 °FScattered clouds.6 mph53%30.18 "HgN/A
4:00 PM72 °FScattered clouds.2 mph50%30.21 "HgN/A
3:00 PM70 °FPartly sunny.2 mph53%30.21 "HgN/A
2:00 PM70 °FPartly sunny.2 mph50%30.24 "HgN/A
1:00 PM70 °FPartly sunny.6 mph53%30.24 "HgN/A
12:00 PM68 °FPartly sunny.No wind49%30.27 "HgN/A
11:00 AM68 °FPartly sunny.No wind53%30.24 "HgN/A
10:00 AM59 °FPartly sunny.No wind88%30.24 "HgN/A
9:00 AM54 °FPartly sunny.2 mph82%30.21 "HgN/A
8:00 AM52 °FPassing clouds.1 mph82%30.21 "HgN/A
7:00 AM52 °FPassing clouds.1 mph82%30.18 "HgN/A
6:00 AM55 °FPassing clouds.2 mph72%30.18 "HgN/A
5:00 AM61 °FPassing clouds.3 mph59%30.18 "HgN/A
4:00 AM61 °FPassing clouds.3 mph63%30.21 "HgN/A
3:00 AM63 °FPassing clouds.5 mph59%30.21 "HgN/A
2:00 AM64 °FPassing clouds.5 mph56%30.21 "HgN/A
1:00 AM64 °FPassing clouds.5 mph60%30.21 "HgN/A
Weather by CustomWeather, © 2015

See weather overviewHow to use our weather pages